Wind_Speed
43 43 44 44 44 44 44 43 43 43 43 43 43 43 43 43 43 42 43 45 44 43 42 41 40 40 40 39 37 36 35 34 32 32 31 30 29 29
44 45 45 45 45 45 46 45 44 44 43 44 45 45 45 45 44 43 43 44 45 45 44 43 41 41 40 39 38 36 35 34 33 32 31 31 30 29
44 45 46 46 47 46 46 47 46 45 45 44 44 45 45 46 45 45 45 45 45 45 44 43 43 42 41 40 39 38 36 34 33 33 32 31 31 30
43 44 45 46 46 47 47 47 47 46 45 45 45 46 46 46 47 46 46 46 45 46 45 44 44 43 42 41 40 38 36 35 34 34 33 32 31 30
40 42 43 45 46 47 48 48 48 47 46 46 46 46 46 47 47 47 47 46 46 46 47 46 45 44 43 42 41 39 37 36 35 34 33 32 31 30
38 40 41 43 44 45 47 47 48 48 47 46 47 47 46 46 46 45 47 47 47 47 48 47 46 45 45 43 42 40 38 37 36 35 33 32 31 30
34 37 39 41 42 44 45 47 47 47 47 46 46 46 46 46 46 45 46 46 47 48 48 48 47 47 46 44 42 41 39 37 36 35 34 33 32 30
30 33 36 38 40 42 43 45 46 47 47 47 46 46 46 47 47 46 46 47 47 48 49 49 49 47 46 45 43 42 40 38 37 35 34 33 32 31
28 30 33 35 37 39 42 44 45 46 47 46 47 46 46 47 47 47 46 46 47 48 50 50 50 49 47 46 44 43 42 40 37 36 35 34 33 31
25 26 29 31 34 37 39 42 44 46 46 47 47 47 48 47 48 48 47 46 47 48 49 50 50 50 48 47 45 44 42 40 38 38 36 35 34 32
21 24 26 29 30 33 37 39 42 44 46 47 47 48 49 48 48 48 47 47 48 49 48 49 49 50 49 48 46 45 43 41 39 39 38 36 35 33
19 20 22 25 28 30 32 36 39 42 44 46 47 48 49 49 49 48 48 47 49 50 50 50 49 50 50 49 47 46 45 43 41 40 39 38 36 35
16 18 20 22 24 28 30 32 36 39 42 42 44 46 49 50 50 49 49 48 48 48 50 50 49 49 49 49 48 47 46 44 43 41 40 39 38 36
13 14 17 19 21 24 28 31 34 36 39 40 42 43 45 48 50 50 50 49 49 49 50 50 49 47 47 48 49 48 47 46 44 43 42 41 40 38
11 12 14 16 19 21 24 27 30 33 35 38 40 41 43 46 48 49 49 50 49 49 49 49 49 48 49 49 49 49 48 47 46 45 43 42 41 40
9 10 11 13 16 19 21 24 27 30 32 35 38 39 41 43 45 47 47 49 50 50 48 49 49 49 49 50 49 50 50 49 47 46 45 44 43 42
9 8 8 10 13 16 18 21 24 27 29 32 36 38 39 40 42 45 46 47 49 49 48 48 49 50 50 50 50 50 49 49 49 48 47 46 45 44
9 8 7 8 9 11 14 17 21 25 28 30 32 35 37 39 41 43 45 46 46 48 48 48 48 48 49 50 50 49 50 50 50 49 48 48 46 45
10 8 7 6 7 9 10 13 17 20 23 27 30 33 35 37 39 41 42 44 44 45 46 47 47 47 47 48 49 49 48 48 48 49 49 48 48 46
11 9 7 5 5 7 9 11 14 17 20 23 26 29 32 35 37 39 40 42 43 44 44 45 46 46 46 47 47 48 48 48 48 48 47 47 47 47
11 9 7 6 5 6 8 10 12 15 17 20 23 26 29 31 34 36 39 40 41 42 43 43 45 45 46 46 46 46 46 47 46 45 45 46 47 47
11 8 7 6 6 6 6 9 11 13 16 18 20 23 25 28 31 33 35 38 40 40 41 41 42 44 45 45 44 44 46 45 45 45 44 44 44 45
11 9 8 7 6 6 6 8 9 11 13 16 19 21 23 25 28 30 32 34 37 38 39 40 41 41 43 44 44 44 44 44 44 44 44 43 43 43
Wind_Direction
254 252 250 249 247 245 242 241 239 237 236 233 233 232 231 230 229 228 227 226 226 226 226 226 225 226 226 228 228 228 230 232 233 234 235 238 239 241
254 252 250 248 247 245 242 240 238 237 235 233 232 232 230 229 229 228 226 226 226 226 226 225 225 225 226 227 229 230 231 232 233 235 236 238 239 241
255 252 250 247 245 244 242 239 237 236 234 233 232 231 230 229 229 228 225 225 226 226 225 225 224 225 225 226 228 229 231 231 232 234 236 238 240 241
256 252 249 247 245 243 241 239 237 235 234 232 231 231 230 229 229 228 226 226 225 225 224 224 224 224 225 226 227 228 230 231 232 233 235 237 238 240
256 253 249 247 244 242 240 239 237 235 233 231 231 230 229 228 227 227 227 225 225 224 223 223 223 223 223 225 226 227 229 231 232 233 234 235 237 238
256 252 249 246 243 240 239 238 237 234 232 230 229 229 228 227 226 226 225 225 224 223 223 222 221 222 222 223 224 226 228 230 232 232 233 234 236 237
257 252 248 244 242 240 238 236 235 234 231 229 227 227 226 225 225 225 224 224 224 224 222 221 220 221 222 222 223 225 227 229 230 231 232 232 234 236
258 253 248 243 241 239 237 235 234 232 231 229 227 226 225 224 223 223 223 223 223 222 221 220 220 220 221 222 223 225 226 228 229 231 231 231 232 233
259 253 249 244 240 237 236 234 232 231 231 229 227 224 222 221 222 222 222 222 222 222 220 220 220 220 221 222 223 224 225 226 228 229 230 230 231 232
261 254 249 244 240 235 233 232 231 231 230 229 226 224 220 219 220 221 220 220 221 221 221 219 219 220 220 222 223 223 225 226 227 228 228 228 230 231
263 255 248 243 240 235 232 231 230 229 229 229 228 226 223 220 218 219 219 220 219 219 219 218 217 218 219 221 223 224 225 226 227 227 228 229 230 232
267 256 249 242 239 234 232 230 230 228 228 228 229 227 225 223 221 220 220 220 220 221 221 220 218 217 218 220 223 225 226 226 227 228 228 229 231 233
272 258 250 241 239 236 232 231 230 228 227 227 227 227 226 224 223 224 222 222 220 221 221 221 220 219 220 220 222 224 226 227 228 229 229 230 231 233
276 262 251 244 240 238 235 234 231 229 228 227 226 225 224 224 224 224 224 223 223 222 222 223 222 222 223 223 223 225 225 226 228 229 230 231 232 234
284 269 258 249 240 236 236 233 232 230 228 227 226 225 224 223 224 225 226 225 224 224 223 222 222 224 225 225 224 225 225 226 228 229 231 232 233 235
300 285 268 255 244 238 236 231 230 229 227 226 225 225 224 225 226 227 228 227 227 226 225 224 223 224 225 225 226 225 226 227 229 230 232 234 235 236
313 297 279 258 248 242 239 234 230 228 225 224 225 225 224 226 227 227 229 229 228 228 229 227 226 226 225 226 226 227 228 229 229 231 233 235 236 238
334 316 295 270 254 245 238 234 232 230 228 226 226 226 225 225 226 226 227 227 228 229 230 230 228 227 226 226 227 228 229 230 231 232 234 236 237 239
335 328 312 284 260 246 239 235 232 230 228 227 227 227 227 226 226 225 225 225 227 228 229 230 230 229 229 230 228 229 230 231 232 233 235 236 238 240
340 335 326 301 275 256 243 236 232 228 227 227 227 227 228 226 226 226 227 226 227 228 230 231 231 230 230 230 231 232 232 233 233 234 235 237 239 240
346 340 333 318 295 271 251 239 233 231 230 229 226 225 226 225 224 225 226 227 227 228 229 230 230 230 230 231 232 233 234 235 235 236 237 238 239 240
343 337 328 319 307 286 262 245 238 236 235 233 229 226 225 224 222 222 224 224 224 226 227 228 230 230 229 230 231 233 234 235 235 236 237 238 239 240
342 339 329 313 308 298 272 251 243 241 238 235 231 228 226 224 223 222 222 223 223 224 226 228 229 230 230 230 232 233 235 235 235 236 236 237 238 239
Height
5748 5751 5753 5756 5759 5761 5765 5769 5772 5777 5781 5786 5790 5795 5800 5805 5810 5814 5820 5826 5831 5837 5842 5847 5852 5857 5862 5867 5871 5876 5880 5884 5887 5890 5893 5896 5899 5902
5735 5737 5740 5743 5746 5749 5753 5757 5761 5766 5771 5776 5781 5785 5790 5795 5801 5806 5811 5817 5822 5828 5833 5839 5844 5850 5855 5860 5865 5869 5873 5877 5881 5884 5887 5890 5893 5896
5721 5724 5727 5729 5733 5737 5741 5745 5750 5754 5760 5765 5770 5775 5780 5785 5791 5796 5802 5807 5813 5819 5825 5831 5837 5842 5847 5853 5858 5862 5867 5870 5874 5878 5881 5884 5887 5890
5707 5710 5713 5716 5720 5724 5728 5733 5738 5743 5748 5754 5759 5764 5770 5775 5781 5787 5793 5798 5804 5810 5816 5822 5828 5834 5840 5845 5850 5855 5860 5864 5867 5871 5875 5878 5881 5884
5694 5696 5699 5702 5706 5710 5715 5720 5726 5731 5737 5743 5748 5754 5759 5765 5771 5777 5783 5789 5795 5801 5807 5813 5820 5826 5832 5837 5843 5848 5852 5857 5861 5864 5868 5872 5875 5878
5680 5682 5685 5688 5693 5697 5702 5708 5713 5719 5725 5732 5737 5743 5749 5755 5761 5767 5773 5779 5785 5792 5798 5805 5811 5817 5823 5829 5835 5840 5845 5850 5854 5858 5861 5865 5868 5871
5668 5670 5672 5676 5680 5685 5690 5696 5702 5707 5713 5720 5726 5732 5738 5745 5751 5758 5764 5769 5776 5782 5789 5796 5802 5808 5814 5821 5827 5832 5837 5842 5846 5850 5854 5858 5862 5865
5657 5659 5661 5664 5669 5673 5678 5684 5690 5696 5702 5708 5715 5722 5728 5735 5741 5748 5754 5760 5767 5774 5780 5786 5793 5800 5806 5812 5818 5824 5830 5834 5839 5843 5847 5852 5855 5859
5647 5648 5650 5653 5657 5662 5667 5672 5678 5684 5691 5697 5704 5711 5718 5725 5732 5738 5744 5750 5757 5764 5770 5777 5784 5791 5797 5804 5810 5816 5822 5826 5831 5836 5841 5845 5849 5852
5638 5639 5641 5643 5646 5651 5656 5661 5667 5673 5680 5687 5694 5701 5707 5713 5721 5728 5734 5741 5747 5753 5760 5767 5774 5781 5788 5795 5801 5807 5813 5819 5824 5829 5833 5838 5842 5845
5630 5631 5632 5634 5637 5641 5646 5652 5657 5663 5669 5676 5683 5689 5696 5703 5711 5718 5724 5731 5737 5744 5751 5758 5765 5772 5779 5786 5792 5799 5805 5810 5816 5821 5826 5831 5835 5839
5623 5623 5624 5627 5629 5633 5638 5642 5647 5653 5659 5665 5672 5679 5686 5693 5700 5708 5715 5722 5728 5735 5741 5749 5755 5762 5770 5777 5783 5790 5796 5802 5808 5813 5818 5823 5827 5831
5617 5617 5618 5620 5622 5626 5630 5634 5638 5643 5649 5655 5662 5668 5675 5683 5691 5698 5705 5712 5719 5726 5733 5739 5746 5753 5760 5768 5774 5781 5787 5794 5799 5805 5810 5815 5820 5824
5612 5612 5612 5614 5616 5619 5622 5626 5630 5635 5640 5646 5652 5659 5666 5673 5681 5688 5696 5703 5710 5717 5723 5729 5737 5744 5751 5758 5765 5772 5778 5785 5791 5796 5801 5806 5811 5816
5608 5607 5608 5608 5610 5612 5615 5619 5623 5627 5633 5638 5644 5651 5657 5664 5671 5678 5685 5693 5700 5707 5713 5720 5727 5734 5741 5748 5755 5762 5769 5775 5781 5787 5793 5798 5802 5807
5605 5604 5604 5604 5605 5606 5609 5612 5616 5620 5625 5630 5636 5642 5649 5655 5661 5668 5675 5682 5690 5697 5704 5711 5718 5725 5731 5739 5745 5752 5759 5766 5772 5778 5783 5788 5793 5798
5603 5602 5601 5600 5601 5602 5604 5606 5610 5614 5618 5623 5629 5635 5640 5646 5652 5659 5666 5672 5680 5687 5694 5701 5708 5715 5722 5728 5735 5742 5748 5755 5761 5767 5773 5778 5783 5788
5601 5600 5598 5598 5598 5598 5600 5602 5604 5608 5612 5617 5622 5626 5632 5638 5644 5650 5657 5663 5670 5677 5684 5691 5698 5704 5711 5718 5725 5731 5738 5744 5751 5756 5762 5768 5773 5778
5600 5598 5597 5596 5596 5596 5597 5598 5600 5603 5606 5610 5615 5619 5624 5630 5635 5641 5647 5654 5661 5668 5674 5681 5687 5694 5701 5708 5715 5721 5727 5733 5739 5745 5751 5757 5762 5767
5599 5597 5596 5595 5594 5594 5595 5595 5597 5599 5602 5605 5609 5613 5617 5622 5627 5633 5638 5645 5651 5658 5664 5671 5678 5684 5691 5698 5704 5710 5716 5723 5728 5734 5740 5745 5750 5755
5599 5597 5595 5594 5593 5593 5593 5593 5594 5596 5598 5600 5603 5607 5611 5615 5620 5625 5630 5636 5642 5648 5655 5662 5668 5674 5681 5687 5694 5700 5706 5712 5718 5723 5729 5734 5739 5744
5598 5596 5594 5593 5592 5591 5591 5591 5592 5593 5594 5596 5598 5601 5604 5608 5613 5618 5623 5628 5634 5640 5646 5652 5658 5664 5671 5677 5684 5689 5696 5701 5707 5712 5718 5723 5728 5733
5598 5595 5593 5592 5590 5589 5589 5589 5589 5590 5590 5592 5594 5596 5599 5602 5606 5611 5616 5621 5626 5632 5638 5643 5649 5655 5661 5667 5673 5679 5685 5691 5696 5702 5707 5712 5717 5722